Green Bay, WI

10:48 AM CST on January 19, 2018 (GMT -0600)
Austin Straubel International

Weather History for KGRB - May, 2014

Change the Weather History Date:

Monday, May 5, 2014

  Actual Average Record
Temperature  
Mean Temperature 46 °F 51 °F  
Max Temperature 53 °F 63 °F 90 °F (1949)
Min Temperature 38 °F 40 °F 26 °F (1967)
Degree Days  
Heating Degree Days 19 14  
Month to date heating degree days 85 72  
Since 1 July heating degree days 8556 7609  
Cooling Degree Days 0 0  
Month to date cooling degree days 0 0  
Year to date cooling degree days 0 2  
Moisture  
Dew Point 36 °F    
Average Humidity 76    
Maximum Humidity 92    
Minimum Humidity 59    
Precipitation  
Precipitation T in 0.08 in 1.15 in (1974)
Month to date precipitation 0.03 0.42  
Year to date precipitation 7.74 7.14  
Snow  
Snow 0.00 in 0.00 in 2.50 in (1890)
Month to date snowfall 0.0 0.1  
Since 1 July snowfall 72.1 51.3  
Snow Depth 0.00 in    
Sea Level Pressure  
Sea Level Pressure 30.10 in    
Wind  
Wind Speed 7 mph (ENE)    
Max Wind Speed 18 mph    
Max Gust Speed 22 mph    
Visibility 10 miles    
Events Rain    
T = Trace of Precipitation, MM = Missing Value Source: NWS Daily Summary

Daily Weather History Graph

Daily Weather History Graph

Search for Another Location

Airport or City:

Trip Planner

Search our weather history database for the weather conditions in past years. The results will help you decide how hot, cold, wet, or windy it might be!

Date:

Astronomy

May. 05, 2014 Rise Set
Actual Time 5:37 AM CDT 8:01 PM CDT
Civil Twilight 5:04 AM CDT 8:34 PM CDT
Nautical Twilight 4:24 AM CDT 9:15 PM CDT
Astronomical Twilight 3:39 AM CDT 10:00 PM CDT
Moon 10:57 AM CDT (5/5) 12:45 AM CDT (5/5)
Length of Visible Light 15h 29m
Length of Day
14h 24m
Waxing Crescent, 37% of the Moon is Illuminated
May 5
Waxing Crescent
May 6
First Quarter
May 14
Full
May 21
Last Quarter
May 28
New

Hourly Weather History & Observations

Time (CDT) Temp. Windchill Dew Point Humidity Pressure Visibility Wind Dir Wind Speed Gust Speed Precip Events Conditions
12:53 AM 39.9 °F 35.8 °F 33.1 °F 77% 30.12 in 10.0 mi East 5.8 mph - N/A   Clear
1:53 AM 39.9 °F 36.7 °F 33.1 °F 77% 30.10 in 10.0 mi East 4.6 mph - N/A   Partly Cloudy
2:53 AM 41.0 °F 38.0 °F 33.1 °F 73% 30.10 in 10.0 mi East 4.6 mph - N/A   Overcast
3:53 AM 41.0 °F 38.0 °F 33.1 °F 73% 30.11 in 10.0 mi East 4.6 mph - N/A   Mostly Cloudy
4:53 AM 39.9 °F 35.1 °F 33.1 °F 77% 30.11 in 10.0 mi NE 6.9 mph - N/A   Mostly Cloudy
5:53 AM 41.0 °F 35.2 °F 33.1 °F 73% 30.12 in 10.0 mi NNE 9.2 mph - N/A   Overcast
6:53 AM 39.0 °F 31.4 °F 34.0 °F 82% 30.13 in 10.0 mi NE 12.7 mph - N/A   Overcast
7:53 AM 39.0 °F 29.9 °F 36.0 °F 89% 30.14 in 10.0 mi NE 17.3 mph - 0.00 in   Overcast
8:08 AM 39.0 °F 30.3 °F 36.0 °F 89% 30.13 in 10.0 mi NE 16.1 mph - N/A   Overcast
8:53 AM 39.0 °F 31.8 °F 36.0 °F 89% 30.14 in 10.0 mi NE 11.5 mph - N/A   Overcast
9:00 AM 39.0 °F 33.4 °F 36.0 °F 89% 30.13 in 10.0 mi ENE 8.1 mph - N/A   Overcast
9:53 AM 39.9 °F 33.4 °F 36.0 °F 86% 30.14 in 10.0 mi ENE 10.4 mph - 0.00 in   Overcast
10:03 AM 39.9 °F 34.5 °F 37.0 °F 89% 30.11 in 10.0 mi ENE 8.1 mph - 0.00 in Rain Light Rain
10:53 AM 39.9 °F 34.5 °F 37.0 °F 89% 30.14 in 10.0 mi NE 8.1 mph - 0.00 in   Overcast
11:03 AM 41.0 °F 35.2 °F 37.0 °F 86% 30.12 in 10.0 mi NE 9.2 mph - N/A   Overcast
11:53 AM 44.1 °F 40.1 °F 37.9 °F 79% 30.12 in 10.0 mi East 6.9 mph - N/A   Overcast
12:08 PM 45.0 °F 41.8 °F 37.9 °F 76% 30.10 in 10.0 mi East 5.8 mph - N/A   Overcast
12:53 PM 48.2 °F - 39.2 °F 71% 30.08 in 10.0 mi East 5.8 mph - N/A   Mostly Cloudy
1:53 PM 50.0 °F - 37.9 °F 63% 30.10 in 10.0 mi ESE 5.8 mph - N/A   Overcast
2:53 PM 51.1 °F - 37.9 °F 61% 30.07 in 10.0 mi East 4.6 mph - N/A   Clear
3:53 PM 52.0 °F - 39.9 °F 63% 30.05 in 10.0 mi NE 10.4 mph - N/A   Clear
4:53 PM 52.0 °F - 37.9 °F 59% 30.04 in 10.0 mi NE 10.4 mph - N/A   Clear
5:53 PM 52.0 °F - 37.0 °F 57% 30.04 in 10.0 mi ENE 10.4 mph - N/A   Clear
6:53 PM 51.1 °F - 39.0 °F 63% 30.05 in 10.0 mi ENE 6.9 mph - N/A   Clear
7:53 PM 48.0 °F - 39.0 °F 71% 30.05 in 10.0 mi ESE 4.6 mph - N/A   Clear
8:53 PM 45.0 °F 42.6 °F 36.0 °F 71% 30.07 in 10.0 mi SE 4.6 mph - N/A   Clear
9:53 PM 44.6 °F 42.2 °F 35.6 °F 71% 30.06 in 10.0 mi SE 4.6 mph - N/A   Clear
10:53 PM 42.8 °F - 35.6 °F 76% 30.05 in 10.0 mi Calm Calm - N/A   Clear
11:53 PM 42.1 °F - 35.1 °F 76% 30.08 in 10.0 mi Calm Calm - N/A   Clear